GW3384 Weather Reports


time (UTC)temp
C
wind
direction
speed
KPH
gust
KPH
rain 1hr
cm
rain 24hr
cm
rain mn
cm
humidity
%
barometer
mb
20260506084627 22 45 0.0 0.0 0.00 0.00 0.00 99 1009.0
20260506084124 22 45 0.0 0.0 0.00 0.00 0.00 99 1008.9
20260506083621 22 45 0.0 0.0 0.00 0.00 0.00 99 1008.9
20260506083119 22 45 0.0 0.0 0.00 0.00 0.00 99 1009.1
20260506082615 22 132 1.6 3.2 0.00 0.00 0.00 99 1009.2
20260506082111 22 27 0.0 0.0 0.00 0.00 0.00 99 1009.0
20260506081609 22 10 0.0 0.0 0.00 0.00 0.00 99 1009.1
20260506081106 22 36 0.0 0.0 0.00 0.00 0.00 99 1009.1
20260506080604 22 0 0.0 0.0 0.00 0.00 0.00 99 1009.2
20260506073044 23 25 0.0 0.0 0.00 0.00 0.00 99 1009.9
20260506072541 23 43 0.0 0.0 0.00 0.00 0.00 99 1009.8
20260506072039 23 34 0.0 0.0 0.00 0.00 0.00 99 1009.7
20260506071537 23 29 0.0 0.0 0.00 0.00 0.00 99 1009.9
20260506071034 23 48 0.0 0.0 0.00 0.00 0.00 99 1009.7
20260506070531 23 33 0.0 0.0 0.00 0.00 0.00 99 1009.9
20260506062508 23 25 0.0 0.0 0.00 0.00 0.00 99 1009.8
20260506062005 23 26 0.0 0.0 0.00 0.00 0.00 99 1009.8
20260506061500 23 44 0.0 0.0 0.00 0.00 0.00 99 1009.7
20260506060958 23 44 0.0 0.0 0.00 0.00 0.00 99 1009.7
20260506060457 23 31 0.0 0.0 0.00 0.00 0.00 99 1009.7
20260506050926 23 49 0.0 0.0 0.00 0.00 0.00 98 1009.6
20260506050423 23 27 0.0 0.0 0.00 0.00 0.00 98 1009.7
20260506044914 23 296 0.0 1.6 0.00 0.00 0.00 98 1009.5
20260506044412 23 42 0.0 1.6 0.00 0.00 0.00 98 1009.9
20260506043908 23 3 0.0 0.0 0.00 0.00 0.00 98 1009.6
20260506043406 23 73 0.0 0.0 0.00 0.00 0.00 97 1009.6
20260506042904 23 35 0.0 0.0 0.00 0.00 0.00 97 1009.4
20260506042403 23 45 0.0 0.0 0.00 0.00 0.00 97 1009.3
20260506041901 23 34 0.0 0.0 0.00 0.00 0.00 97 1009.6
20260506041358 23 53 3.2 6.4 0.00 0.00 0.00 97 1009.4
20260506040855 23 52 0.0 1.6 0.00 0.00 0.00 97 1009.5
20260506040353 23 75 1.6 1.6 0.00 0.00 0.00 97 1009.3
20260506035848 23 37 0.0 0.0 0.00 0.00 0.00 97 1009.5
20260506035345 24 81 3.2 3.2 0.00 0.00 0.00 97 1009.5
20260506034842 24 14 1.6 3.2 0.00 0.00 0.00 96 1009.5
20260506034339 24 37 0.0 0.0 0.00 0.00 0.00 96 1009.4
20260506033836 24 52 1.6 1.6 0.00 0.00 0.00 96 1009.4
20260506033333 24 115 0.0 0.0 0.00 0.00 0.00 96 1009.2
20260506032830 24 330 1.6 1.6 0.00 0.00 0.00 96 1009.2
20260506032327 24 42 0.0 0.0 0.00 0.00 0.00 96 1009.1
20260506031824 24 85 0.0 0.0 0.00 0.00 0.00 96 1009.2
20260506031322 24 39 0.0 0.0 0.00 0.00 0.00 96 1009.2
20260506030819 24 56 0.0 1.6 0.00 0.00 0.00 96 1009.2
20260506030317 24 55 0.0 0.0 0.00 0.00 0.00 96 1009.1
20260506025814 24 244 3.2 4.8 0.00 0.00 0.00 95 1009.0
20260506025310 24 121 1.6 3.2 0.00 0.00 0.00 95 1008.9
20260506024807 24 48 1.6 1.6 0.00 0.00 0.00 95 1008.7
20260506024304 24 33 0.0 0.0 0.00 0.00 0.00 95 1008.5
20260506023800 24 48 0.0 0.0 0.00 0.00 0.00 95 1008.5
20260506023257 24 41 0.0 0.0 0.00 0.00 0.00 95 1008.7
20260506022753 24 52 0.0 0.0 0.00 0.00 0.00 95 1008.3
20260506022252 24 78 1.6 1.6 0.00 0.00 0.00 95 1008.5
20260506021749 24 71 0.0 1.6 0.00 0.00 0.00 95 1008.2
20260506021246 24 50 0.0 0.0 0.00 0.00 0.00 95 1008.3
20260506020743 24 49 0.0 0.0 0.00 0.00 0.00 95 1008.2
20260506020241 24 42 0.0 0.0 0.00 0.00 0.00 95 1008.3
20260506015739 24 32 0.0 0.0 0.00 0.00 0.00 95 1008.0
20260506015236 24 66 0.0 1.6 0.00 0.00 0.00 95 1008.1
20260506014732 24 66 0.0 1.6 0.00 0.00 0.00 94 1007.6
20260506014229 24 37 0.0 0.0 0.00 0.00 0.00 94 1007.7
20260506013726 25 80 0.0 1.6 0.00 0.00 0.00 94 1007.8
20260506013223 24 53 0.0 0.0 0.00 0.00 0.00 94 1007.9
20260506012720 25 47 0.0 1.6 0.00 0.00 0.00 94 1007.8
20260506012217 25 32 1.6 1.6 0.00 0.00 0.00 94 1007.6
20260506011714 25 23 0.0 0.0 0.00 0.00 0.00 94 1007.7
20260506011210 25 44 0.0 0.0 0.00 0.00 0.00 93 1007.7
20260506010709 25 44 0.0 1.6 0.00 0.00 0.00 93 1007.7
20260506010206 25 31 1.6 1.6 0.00 0.00 0.00 93 1007.7
20260506005703 25 19 1.6 1.6 0.00 0.00 0.00 93 1007.5
20260506005159 25 74 1.6 1.6 0.00 0.00 0.00 93 1007.4
20260506004655 25 74 0.0 0.0 0.00 0.00 0.00 93 1007.6
20260506004152 25 80 1.6 1.6 0.00 0.00 0.00 92 1007.4
20260506003648 25 52 0.0 1.6 0.00 0.00 0.00 92 1007.7
20260506003145 25 41 0.0 0.0 0.00 0.00 0.00 92 1007.7
20260506002641 25 54 3.2 3.2 0.00 0.00 0.00 92 1007.5
20260506002137 25 35 0.0 0.0 0.00 0.00 0.00 92 1007.5
20260506001633 25 24 0.0 1.6 0.00 0.00 0.00 92 1007.5
20260506001130 25 10 0.0 1.6 0.00 0.00 0.00 92 1007.5
20260506000628 25 10 1.6 1.6 0.00 0.00 0.00 92 1007.4
20260506000125 25 64 1.6 3.2 0.00 0.00 0.00 91 1007.3
20260505235618 25 42 1.6 1.6 0.00 0.00 0.00 92 1007.4
20260505235114 26 66 1.6 1.6 0.00 0.00 0.00 91 1007.4
20260505234611 26 29 0.0 0.0 0.00 0.00 0.00 91 1007.4
20260505234107 26 61 0.0 1.6 0.00 0.00 0.00 91 1007.5
20260505233605 26 16 0.0 0.0 0.00 0.00 0.00 90 1007.4
20260505233102 26 74 0.0 1.6 0.00 0.00 0.00 90 1007.5
20260505232600 26 100 3.2 3.2 0.00 0.00 0.00 90 1007.6
20260505232057 26 71 1.6 3.2 0.00 0.00 0.00 90 1007.4
20260505231554 26 13 1.6 3.2 0.00 0.00 0.00 90 1007.3
20260505231053 26 247 4.8 9.7 0.00 0.00 0.00 90 1007.4
20260505230550 26 61 1.6 1.6 0.00 0.00 0.00 90 1007.4
20260505230046 26 5 0.0 1.6 0.00 0.00 0.00 91 1007.5
20260505225543 26 154 0.0 1.6 0.00 0.00 0.00 90 1007.4
20260505225039 26 34 0.0 0.0 0.00 0.00 0.00 91 1007.2
20260505224536 26 49 1.6 1.6 0.00 0.00 0.00 91 1007.4
20260505224033 26 81 3.2 3.2 0.00 0.00 0.00 90 1007.3
20260505223530 26 35 0.0 0.0 0.00 0.00 0.00 90 1007.5
20260505223026 26 77 1.6 1.6 0.00 0.00 0.00 90 1007.4
20260505222523 26 85 0.0 1.6 0.00 0.00 0.00 90 1007.4
20260505222019 26 77 1.6 1.6 0.00 0.00 0.00 89 1007.4
20260505221517 27 39 0.0 0.0 0.00 0.00 0.00 88 1007.4
20260505221013 26 46 0.0 0.0 0.00 0.00 0.00 89 1007.5
20260505220511 26 30 0.0 1.6 0.00 0.00 0.00 88 1007.4
20260505220009 26 173 1.6 1.6 0.00 0.00 0.00 89 1007.5
20260505215507 26 61 1.6 1.6 0.00 0.00 0.00 89 1007.5
20260505215004 26 31 0.0 0.0 0.00 0.00 0.00 89 1007.8
20260505214502 26 43 0.0 1.6 0.00 0.00 0.00 88 1007.9
20260505213959 27 62 1.6 1.6 0.00 0.00 0.00 88 1007.7
20260505213456 27 61 1.6 1.6 0.00 0.00 0.00 86 1007.6
20260505212953 27 329 3.2 4.8 0.00 0.00 0.00 85 1007.7
20260505212449 27 56 1.6 1.6 0.00 0.00 0.00 87 1007.8
20260505211945 27 175 3.2 4.8 0.00 0.00 0.00 87 1007.8
20260505211443 27 94 3.2 4.8 0.00 0.00 0.00 87 1007.9
20260505210939 27 228 6.4 9.7 0.00 0.00 0.00 86 1007.8
20260505210437 26 98 1.6 3.2 0.00 0.00 0.00 88 1007.9
20260505205933 26 37 0.0 0.0 0.00 0.00 0.00 88 1008.1
20260505205432 26 41 0.0 1.6 0.00 0.00 0.00 88 1008.0
20260505204928 27 71 0.0 1.6 0.00 0.00 0.00 87 1008.2
20260505204426 27 37 0.0 0.0 0.00 0.00 0.00 87 1008.2
20260505203923 27 74 3.2 3.2 0.00 0.00 0.00 87 1008.3
20260505203419 27 177 3.2 3.2 0.00 0.00 0.00 86 1008.3
20260505202915 27 28 1.6 1.6 0.00 0.00 0.00 85 1008.4
20260505202411 27 35 1.6 1.6 0.00 0.00 0.00 86 1008.5
20260505201908 27 245 3.2 4.8 0.00 0.00 0.00 84 1008.5
20260505201406 27 87 1.6 3.2 0.00 0.00 0.00 86 1008.4
20260505200904 27 57 0.0 1.6 0.00 0.00 0.00 87 1008.7
20260505200401 27 57 1.6 1.6 0.00 0.00 0.00 85 1008.7
20260505195856 27 81 1.6 3.2 0.00 0.00 0.00 86 1008.9
20260505195353 26 343 6.4 6.4 0.00 0.00 0.00 88 1008.8
20260505194850 26 260 1.6 1.6 0.00 0.00 0.00 87 1008.8
20260505194348 27 247 3.2 3.2 0.00 0.00 0.00 86 1008.9
20260505193848 27 80 1.6 1.6 0.00 0.00 0.00 86 1008.8
20260505193346 26 127 3.2 4.8 0.00 0.00 0.00 87 1008.8
20260505192844 26 30 1.6 1.6 0.00 0.00 0.00 87 1009.0
20260505192342 26 189 4.8 6.4 0.00 0.00 0.00 87 1009.0
20260505191839 26 83 1.6 1.6 0.00 0.00 0.00 88 1009.2
20260505191338 26 21 1.6 3.2 0.00 0.00 0.00 88 1009.2
20260505190834 26 269 3.2 4.8 0.00 0.00 0.00 88 1009.1
20260505190329 26 143 1.6 3.2 0.00 0.00 0.00 88 1009.4
20260505185825 26 252 3.2 4.8 0.00 0.00 0.00 87 1009.2
20260505185322 26 312 1.6 1.6 0.00 0.00 0.00 87 1009.1
20260505184818 26 86 1.6 3.2 0.00 0.00 0.00 89 1009.3
20260505184315 25 126 4.8 4.8 0.00 0.00 0.00 90 1009.4
20260505183812 25 196 1.6 1.6 0.00 0.00 0.00 91 1009.4
20260505183309 25 274 3.2 4.8 0.00 0.00 0.00 91 1009.3
20260505182806 25 65 1.6 3.2 0.00 0.00 0.00 91 1009.3
20260505182305 25 136 1.6 3.2 0.00 0.00 0.00 90 1009.2
20260505181759 25 108 3.2 3.2 0.00 0.00 0.00 91 1009.3
20260505181257 25 85 3.2 3.2 0.00 0.00 0.00 91 1009.4
20260505180753 25 28 1.6 1.6 0.00 0.00 0.00 91 1009.5
20260505180249 25 195 6.4 9.7 0.00 0.00 0.00 91 1009.6
20260505175746 25 204 9.7 12.9 0.00 0.00 0.00 91 1009.6
20260505175243 25 14 1.6 1.6 0.00 0.00 0.00 92 1009.6
20260505174739 25 83 1.6 1.6 0.00 0.00 0.00 91 1009.6
20260505174236 25 56 1.6 1.6 0.00 0.00 0.00 92 1009.6
20260505173732 25 39 0.0 1.6 0.00 0.00 0.00 93 1010.0
20260505173229 25 56 1.6 3.2 0.00 0.00 0.00 92 1009.9
20260505172726 25 27 0.0 1.6 0.00 0.00 0.00 92 1009.8
20260505172223 25 51 1.6 1.6 0.00 0.00 0.00 92 1009.9
20260505171723 25 56 0.0 0.0 0.00 0.00 0.00 93 1009.7
20260505171220 25 164 3.2 4.8 0.00 0.00 0.00 93 1010.0
20260505170717 24 158 1.6 3.2 0.00 0.00 0.00 93 1009.6
20260505170214 25 175 6.4 11.3 0.00 0.00 0.00 92 1009.6
20260505165709 25 47 0.0 0.0 0.00 0.00 0.00 92 1009.6
20260505165206 25 67 3.2 3.2 0.00 0.00 0.00 92 1009.6
20260505164701 25 185 6.4 11.3 0.00 0.00 0.00 91 1009.7
20260505164158 25 207 1.6 3.2 0.00 0.00 0.00 91 1009.8
20260505163656 25 33 1.6 1.6 0.00 0.00 0.00 91 1009.6
20260505163154 25 88 3.2 3.2 0.00 0.00 0.00 92 1009.9
20260505162651 25 85 1.6 3.2 0.00 0.00 0.00 91 1009.7
20260505162149 25 307 1.6 3.2 0.00 0.00 0.00 91 1010.1
20260505161645 25 79 3.2 3.2 0.00 0.00 0.00 92 1009.8
20260505161143 25 37 1.6 1.6 0.00 0.00 0.00 92 1009.7
20260505160641 25 78 1.6 1.6 0.00 0.00 0.00 92 1009.8
20260505160138 25 189 1.6 1.6 0.00 0.00 0.00 91 1009.6
20260505153118 23 46 1.6 1.6 0.00 0.00 0.00 94 1009.9
20260505152614 23 55 0.0 1.6 0.00 0.00 0.00 93 1009.8
20260505152110 23 55 0.0 0.0 0.00 0.00 0.00 93 1009.8
20260505151605 23 64 0.0 0.0 0.00 0.00 0.00 94 1009.6
20260505151103 23 67 1.6 1.6 0.00 0.00 0.00 94 1009.8
20260505150559 23 39 0.0 0.0 0.00 0.00 0.00 94 1009.9
20260505140525 22 213 3.2 6.4 0.00 0.00 0.00 94 1009.6
20260505124937 21 53 0.0 0.0 0.00 0.00 0.00 97 1009.2
20260505124434 21 63 1.6 1.6 0.00 0.00 0.00 97 1009.3
20260505123931 21 33 0.0 0.0 0.00 0.00 0.00 98 1009.2
20260505123427 21 41 1.6 1.6 0.00 0.00 0.00 98 1009.4
20260505122923 21 21 0.0 0.0 0.00 0.00 0.00 98 1009.2
20260505122421 21 57 0.0 0.0 0.00 0.00 0.00 98 1009.1
20260505121918 21 57 0.0 0.0 0.00 0.00 0.00 98 1009.1
20260505121415 21 51 0.0 0.0 0.00 0.00 0.00 98 1009.2
20260505120911 21 68 0.0 0.0 0.00 0.00 0.00 98 1009.2
20260505120407 20 54 0.0 0.0 0.00 0.00 0.00 98 1009.0
20260505115905 20 64 0.0 0.0 0.00 0.00 0.00 98 1008.9
20260505115402 20 57 0.0 0.0 0.00 0.00 0.00 98 1008.9
20260505114901 20 44 0.0 0.0 0.00 0.00 0.00 99 1008.9
20260505114357 20 44 0.0 0.0 0.00 0.00 0.00 99 1008.8
20260505113854 20 39 0.0 0.0 0.00 0.00 0.00 99 1008.8
20260505113350 20 55 0.0 0.0 0.00 0.00 0.00 99 1009.0
20260505112845 20 50 0.0 0.0 0.00 0.00 0.00 99 1008.9
20260505112344 20 56 0.0 0.0 0.00 0.00 0.00 99 1008.7
20260505111839 20 58 0.0 0.0 0.00 0.00 0.00 99 1008.8
20260505111334 20 70 0.0 0.0 0.00 0.00 0.00 99 1008.9
20260505110830 20 80 0.0 0.0 0.00 0.00 0.00 99 1008.7
20260505110328 19 49 0.0 0.0 0.00 0.00 0.00 99 1008.8
20260505101803 19 42 0.0 0.0 0.00 0.00 0.00 99 1008.8
20260505101258 18 41 0.0 0.0 0.00 0.00 0.00 99 1008.8
20260505100754 18 41 0.0 0.0 0.00 0.00 0.00 99 1009.0
20260505100251 18 39 0.0 0.0 0.00 0.00 0.00 99 1009.1
20260505095747 18 37 0.0 0.0 0.00 0.00 0.00 98 1009.0
20260505095245 19 45 0.0 0.0 0.00 0.00 0.00 98 1009.0
20260505094740 19 45 0.0 0.0 0.00 0.00 0.00 98 1009.0
20260505094237 19 47 0.0 1.6 0.00 0.00 0.00 98 1009.2
20260505093733 19 35 0.0 0.0 0.00 0.00 0.00 98 1009.2
20260505093231 19 36 0.0 0.0 0.00 0.00 0.00 98 1009.3
20260505092727 19 37 0.0 0.0 0.00 0.00 0.00 98 1009.2
20260505092226 19 38 0.0 0.0 0.00 0.00 0.00 98 1009.4
20260505091723 18 39 1.6 3.2 0.00 0.00 0.00 98 1009.4
20260505091221 18 33 0.0 0.0 0.00 0.00 0.00 98 1009.4
20260505090718 18 27 0.0 0.0 0.00 0.00 0.00 98 1009.5
20260505090216 18 25 0.0 0.0 0.00 0.00 0.00 98 1009.5
20260505085713 18 20 0.0 0.0 0.00 0.00 0.00 98 1009.4
20260505085212 18 14 0.0 0.0 0.00 0.00 0.00 98 1009.6